Zurück zum Katalog

NOAA 13

AktivWetterSSO
NORAD 22739·PAYLOAD·🇺🇸 United States

Gestartet Aug 9, 1993 von Vandenberg Space Force Base

Loading…

Nächste Überflüge (nächste 24 Stunden)

TLE

AktuellSource: Space-Track

Epoche: Sep 14, 2026, 13:20 UTC

1 22739U 93050A   26257.55606268  .00000054  00000-0  51238-4 0  9992
2 22739  98.7093 200.2571 0008482 231.7930 128.2480 14.13680600706002

Verfolge NOAA 13 in Echtzeit mit AllMySat

Download on the App Store